User: anonymous   Login
Location: NJAA Observatory
(40.6819°N, 74.8979°W)
Time: 14:53:24
(UTC-04:00)
Language:

Cosmos 2082 - Orbit

View from above orbital plane
View from above orbital plane
View from above satellite
View from above satellite

Ground track
Ground track

The orbit data is extracted from the following two-line orbital elements,

1 20624U 90046A   16241.08461760  .00000031  00000-0  41053-4 0  9990
2 20624  71.0409 108.0350 0012936 117.6095 242.6343 14.14211168355752
Epoch (UTC): 28 August 2016 02:01:50
Eccentricity: 0.0012936
inclination: 71.0409°
perigee height: 835 km
apogee height: 854 km
right ascension of ascending node: 108.0350°
argument of perigee: 117.6095°
revolutions per day: 14.14211168
mean anomaly at epoch: 242.6343°
orbit number at epoch: 35575

The dashed part of the orbit path shows where the satellite is in the earth's shadow,  

DLR